Date String (YYYY-MM-DD hh:mm:ss) UTC,Instrument flags,absolute air pressure of the measurement (hPa),sample flow rate (lpm),inlet stack bypass flow (lpm),air temperature of the measurement (°C),ambient temperature measured by the external sensor (°C),aerosol sample conditioner tube jacket temperature (°C),OPC LED temperature (°C),internal box temperature (°C),relative humidity of the measurement (%),span deviation,mass concentration of particles derived from Lorenz-Mie calculation of OPC scattering (μg/m³),mass concentration of particles derived from Lorenz-Mie calculation of OPC scattering (μg/m³),mass concentration of particles derived from Lorenz-Mie calculation of OPC scattering (μg/m³)
DateTimeUTC,F1_M11,P_M11,Q1_M11,Q2_M11,T1_M11,T2_M11,T3_M11,T4_M11,T5_M11,U1_M11,ZSPAN_M11,X0_M11,X2_M11,X1_M11
2024-01-25 11:00:00,SystemResetWarning,0826.6,5.00,000.00,021.6,020.8,000.0,030.0,022.9,15.3,0000.0,0008.20,0004.74,0004.47
2024-01-25 11:01:00,SystemResetWarning,0826.6,5.00,000.00,021.6,020.7,000.0,030.0,022.8,15.4,0000.0,0008.13,0004.68,0004.41
2024-01-25 11:02:00,SystemResetWarning,0826.6,5.00,000.00,021.5,020.7,000.0,030.0,022.7,15.5,0000.0,0008.01,0004.61,0004.36
2024-01-25 11:03:00,SystemResetWarning,0826.6,5.00,000.00,021.5,020.6,000.0,030.0,022.7,15.7,0000.0,0008.23,0004.57,0004.29
2024-01-25 11:04:00,SystemResetWarning,0826.6,5.00,000.00,021.5,020.6,000.0,029.9,022.7,15.7,0000.0,0008.19,0004.51,0004.24
2024-01-25 11:05:00,SystemResetWarning,0826.6,5.00,000.00,021.5,020.5,000.0,029.9,022.7,15.8,0000.0,0008.21,0004.52,0004.21
2024-01-25 11:06:00,SystemResetWarning,0826.6,5.00,000.00,021.5,020.5,000.0,029.9,022.7,15.8,0000.0,0008.14,0004.52,0004.22
2024-01-25 11:07:00,SystemResetWarning,0826.5,5.00,000.00,021.5,020.5,000.0,029.9,022.8,15.6,0000.0,0008.12,0004.52,0004.22
2024-01-25 11:08:00,SystemResetWarning,0826.6,5.01,000.00,021.5,020.6,000.0,029.9,022.8,15.5,0000.0,0008.11,0004.52,0004.23
2024-01-25 11:09:00,SystemResetWarning,0826.6,5.00,000.00,021.5,020.6,000.0,029.9,022.8,15.5,0000.0,0008.93,0004.53,0004.23
2024-01-25 11:10:00,SystemResetWarning,0826.6,5.00,000.00,021.4,020.6,000.0,029.9,022.8,15.4,0000.0,0008.63,0004.51,0004.22
2024-01-25 11:11:00,SystemResetWarning,0826.6,5.00,000.00,021.4,020.5,000.0,029.9,022.8,15.5,0000.0,0008.35,0004.51,0004.22
2024-01-25 11:12:00,SystemResetWarning,0826.6,5.00,000.00,021.4,020.5,000.0,029.8,022.8,15.6,0000.0,0008.23,0004.50,0004.21
2024-01-25 11:13:00,SystemResetWarning,0826.6,5.00,000.00,021.4,020.5,000.0,029.8,022.8,15.5,0000.0,0008.22,0004.51,0004.20
2024-01-25 11:14:00,SystemResetWarning,0826.6,5.00,000.00,021.5,020.5,000.0,029.8,022.8,15.6,0000.0,0008.07,0004.50,0004.20
2024-01-25 11:15:00,SystemResetWarning,0826.6,5.00,000.00,021.4,020.6,000.0,029.8,022.8,15.7,0000.0,0008.36,0004.51,0004.21
2024-01-25 11:16:00,SystemResetWarning,0826.6,5.00,000.00,021.4,020.6,000.0,029.8,022.8,15.8,0000.0,0008.55,0004.50,0004.20
2024-01-25 11:17:00,SystemResetWarning,0826.6,5.01,000.00,021.4,020.6,000.0,029.8,022.8,15.8,0000.0,0008.52,0004.44,0004.18
2024-01-25 11:18:00,SystemResetWarning,0826.7,5.00,000.00,021.4,020.5,000.0,029.8,022.8,15.9,0000.0,0008.45,0004.39,0004.15
2024-01-25 11:19:00,SystemResetWarning,0826.7,5.00,000.00,021.4,020.5,000.0,029.8,022.8,16.0,0000.0,0008.34,0004.35,0004.13
2024-01-25 11:20:00,SystemResetWarning,0826.6,5.00,000.00,021.4,020.5,000.0,029.8,022.8,16.0,0000.0,0007.89,0004.31,0004.10
2024-01-25 11:21:00,SystemResetWarning,0826.6,5.00,000.00,021.4,020.5,000.0,029.8,022.8,16.1,0000.0,0007.45,0004.30,0004.08
2024-01-25 11:22:00,SystemResetWarning,0826.6,5.00,000.00,021.4,020.5,000.0,029.8,022.8,16.1,0000.0,0007.50,0004.29,0004.07
2024-01-25 11:23:00,SystemResetWarning,0826.6,5.00,000.00,021.4,020.5,000.0,029.8,022.8,16.1,0000.0,0007.62,0004.28,0004.04
2024-01-25 11:24:00,SystemResetWarning,0826.6,5.00,000.00,021.4,020.5,000.0,029.8,022.8,16.1,0000.0,0008.24,0004.25,0004.03
2024-01-25 11:25:00,SystemResetWarning,0826.6,5.00,000.00,021.4,020.5,000.0,029.8,022.8,16.1,0000.0,0008.18,0004.23,0004.03
2024-01-25 11:26:00,SystemResetWarning,0826.6,5.00,000.00,021.4,020.4,000.0,029.8,022.8,16.0,0000.0,0007.86,0004.22,0004.02
2024-01-25 11:27:00,SystemResetWarning,0826.6,5.00,000.00,021.4,020.4,000.0,029.8,022.7,16.0,0000.0,0007.53,0004.23,0004.02
2024-01-25 11:28:00,SystemResetWarning,0826.6,5.00,000.00,021.4,020.4,000.0,029.8,022.8,16.1,0000.0,0007.47,0004.24,0004.03
2024-01-25 11:29:00,SystemResetWarning,0826.6,5.00,000.00,021.4,020.4,000.0,029.8,022.8,16.1,0000.0,0007.50,0004.26,0004.03
2024-01-25 11:30:00,SystemResetWarning,0826.6,5.00,000.00,021.4,020.4,000.0,029.8,022.8,16.1,0000.0,0007.54,0004.28,0004.05
2024-01-25 11:31:00,SystemResetWarning,0826.6,5.00,000.00,021.4,020.5,000.0,029.8,022.8,16.1,0000.0,0007.72,0004.29,0004.04
2024-01-25 11:32:00,SystemResetWarning,0826.6,5.00,000.00,021.4,020.5,000.0,029.8,022.8,16.1,0000.0,0007.67,0004.28,0004.02
2024-01-25 11:33:00,SystemResetWarning,0826.6,4.99,000.00,021.4,020.4,000.0,029.8,022.7,16.0,0000.0,0007.64,0004.28,0004.00
2024-01-25 11:34:00,SystemResetWarning,0826.6,4.99,000.00,021.4,020.4,000.0,029.7,022.7,16.0,0000.0,0007.52,0004.25,0003.99
2024-01-25 11:35:00,SystemResetWarning,0826.6,5.00,000.00,021.4,020.4,000.0,029.7,022.7,16.1,0000.0,0006.49,0004.27,0003.99
2024-01-25 11:36:00,SystemResetWarning,0826.6,5.01,000.00,021.3,020.4,000.0,029.7,022.7,16.1,0000.0,0006.87,0004.26,0003.97
2024-01-25 11:37:00,SystemResetWarning,0826.6,5.01,000.00,021.3,020.4,000.0,029.7,022.7,15.9,0000.0,0007.38,0004.24,0003.94
2024-01-25 11:38:00,SystemResetWarning,0826.6,4.99,000.00,021.3,020.4,000.0,029.7,022.6,15.9,0000.0,0007.55,0004.21,0003.93
2024-01-25 11:39:00,SystemResetWarning,0826.6,4.99,000.00,021.3,020.4,000.0,029.7,022.6,15.9,0000.0,0007.89,0004.19,0003.92
2024-01-25 11:40:00,SystemResetWarning,0826.6,5.00,000.00,021.3,020.4,000.0,029.7,022.6,15.9,0000.0,0008.27,0004.16,0003.91
2024-01-25 11:41:00,SystemResetWarning,0826.6,5.01,000.00,021.3,020.4,000.0,029.7,022.6,16.0,0000.0,0008.70,0004.17,0003.91
2024-01-25 11:42:00,SystemResetWarning,0826.6,5.01,000.00,021.3,020.4,000.0,029.7,022.7,16.0,0000.0,0009.04,0004.17,0003.91
2024-01-25 11:43:00,SystemResetWarning,0826.6,5.00,000.00,021.3,020.4,000.0,029.7,022.7,16.0,0000.0,0009.54,0004.21,0003.93
2024-01-25 11:44:00,SystemResetWarning,0826.6,4.99,000.00,021.3,020.4,000.0,029.7,022.7,16.0,0000.0,0009.49,0004.20,0003.96
2024-01-25 11:45:00,SystemResetWarning,0826.6,4.99,000.00,021.3,020.4,000.0,029.7,022.7,16.0,0000.0,0009.54,0004.23,0003.98
2024-01-25 11:46:00,SystemResetWarning,0826.6,5.01,000.00,021.3,020.4,000.0,029.7,022.6,16.0,0000.0,0009.92,0004.25,0004.01
2024-01-25 11:47:00,SystemResetWarning,0826.6,5.01,000.00,021.3,020.4,000.0,029.7,022.6,16.0,0000.0,0009.98,0004.26,0004.03
2024-01-25 11:48:00,SystemResetWarning,0826.6,4.99,000.00,021.3,020.4,000.0,029.7,022.6,16.0,0000.0,0009.67,0004.30,0004.06
2024-01-25 11:49:00,SystemResetWarning,0826.6,4.99,000.00,021.3,020.3,000.0,029.7,022.5,16.1,0000.0,0009.80,0004.32,0004.10
2024-01-25 11:50:00,SystemResetWarning,0826.6,5.00,000.00,021.3,020.3,000.0,029.7,022.5,16.0,0000.0,0009.78,0004.36,0004.11
2024-01-25 11:51:00,SystemResetWarning,0826.6,5.01,000.00,021.3,020.3,000.0,029.7,022.5,15.8,0000.0,0010.32,0004.37,0004.12
2024-01-25 11:52:00,SystemResetWarning,0826.6,5.00,000.00,021.2,020.2,000.0,029.6,022.5,15.8,0000.0,0010.07,0004.37,0004.13
2024-01-25 11:53:00,SystemResetWarning,0826.5,5.00,000.00,021.2,020.2,000.0,029.6,022.5,15.8,0000.0,0009.61,0004.37,0004.14
2024-01-25 11:54:00,SystemResetWarning,0826.5,5.00,000.00,021.2,020.2,000.0,029.6,022.5,15.8,0000.0,0009.29,0004.40,0004.15
2024-01-25 11:55:00,SystemResetWarning,0826.5,5.00,000.00,021.2,020.2,000.0,029.6,022.5,15.8,0000.0,0009.74,0004.42,0004.15
2024-01-25 11:56:00,SystemResetWarning,0826.5,5.00,000.00,021.2,020.2,000.0,029.6,022.5,15.6,0000.0,0009.88,0004.43,0004.15
2024-01-25 11:57:00,SystemResetWarning,0826.5,5.00,000.00,021.2,020.2,000.0,029.6,022.5,15.5,0000.0,0009.98,0004.43,0004.14
2024-01-25 11:58:00,SystemResetWarning,0826.4,5.00,000.00,021.2,020.2,000.0,029.6,022.6,15.5,0000.0,0009.86,0004.42,0004.13
2024-01-25 11:59:00,SystemResetWarning,0826.4,5.00,000.00,021.2,020.2,000.0,029.6,022.5,15.6,0000.0,0009.72,0004.40,0004.11
